Change the Weather History Date:

Thursday, January 10, 2013

  Actual Average Record
Temperature  
Mean Temperature 62 °F 48 °F  
Max Temperature 71 °F 59 °F 79 °F (1949)
Min Temperature 52 °F 37 °F 12 °F (1970)
Degree Days  
Heating Degree Days 3 17  
Month to date heating degree days 116 170  
Since 1 July heating degree days 814 908  
Cooling Degree Days 0 0  
Month to date cooling degree days 0 0  
Year to date cooling degree days 0 0  
Growing Degree Days 12 (Base 50)    
Moisture  
Dew Point 55 °F    
Average Humidity 77    
Maximum Humidity 100    
Minimum Humidity 53    
Precipitation  
Precipitation 0.01 in 0.13 in 1.14 in (1967)
Month to date precipitation 0.14 1.16  
Year to date precipitation 0.14 1.16  
Snow  
Snow 0.00 in 0.00 in - ()
Month to date snowfall 0.0  
Since 1 July snowfall 0.0 0.4  
Snow Depth 0.00 in    
Sea Level Pressure  
Sea Level Pressure 30.40 in    
Wind  
Wind Speed 7 mph (NE)    
Max Wind Speed 15 mph    
Max Gust Speed 22 mph    
Visibility 5 miles    
Events Fog , Rain    
T = Trace of Precipitation, MM = Missing Value Source: NWS Daily Summary

Daily Weather History Graph

Daily Weather History Graph

Search for Another Location

Airport or City:

Trip Planner

Search our weather history database for the weather conditions in past years. The results will help you decide how hot, cold, wet, or windy it might be!

Date:

Astronomy

Jan. 10, 2013 Rise Set
Actual Time 7:23 AM EST 5:32 PM EST
Civil Twilight 6:56 AM EST 5:59 PM EST
Nautical Twilight 6:26 AM EST 6:29 PM EST
Astronomical Twilight 5:56 AM EST 6:59 PM EST
Moon 6:02 AM EST (1/10) 4:37 PM EST (1/10)
Length of Visible Light 11h 02m
Length of Day
10h 08m
Waning Crescent, 2% of the Moon is Illuminated
Jan 10
Waning Crescent
Jan 11
New
Jan 18
First Quarter
Jan 26
Full
Feb 3
Last Quarter

Hourly Weather History & Observations

Time (EST) Temp. Dew Point Humidity Pressure Visibility Wind Dir Wind Speed Gust Speed Precip Events Conditions
12:13 AM 53.6 °F 53.6 °F 100% 30.39 in 5.0 mi North 5.8 mph - N/A Fog Shallow Fog
12:36 AM 55.4 °F 55.4 °F 100% 30.39 in 0.5 mi NNW 3.5 mph - N/A Fog Fog
12:56 AM 53.1 °F 52.0 °F 96% 30.39 in 1.0 mi NNW 4.6 mph - N/A Fog Shallow Fog
1:23 AM 53.6 °F 53.6 °F 100% 30.39 in 0.5 mi Calm Calm - N/A Fog Fog
1:32 AM 53.6 °F 53.6 °F 100% 30.39 in 0.2 mi Calm Calm - N/A Fog Fog
1:56 AM 53.1 °F 53.1 °F 100% 30.40 in 0.2 mi North 3.5 mph - N/A Fog Fog
2:56 AM 57.0 °F 55.9 °F 96% 30.41 in 0.5 mi North 5.8 mph - N/A Fog Fog
3:56 AM 55.9 °F 55.9 °F 100% 30.40 in 0.5 mi North 4.6 mph - N/A Fog Fog
4:56 AM 54.0 °F 54.0 °F 100% 30.39 in 0.5 mi North 5.8 mph - N/A Fog Fog
5:31 AM 55.4 °F 53.6 °F 94% 30.40 in 0.2 mi North 3.5 mph - N/A Fog Fog
5:56 AM 55.0 °F 54.0 °F 96% 30.40 in 0.2 mi North 4.6 mph - N/A Fog Fog
6:30 AM 55.4 °F 53.6 °F 94% 30.41 in 0.2 mi North 4.6 mph - N/A Fog Fog
6:56 AM 55.0 °F 54.0 °F 96% 30.42 in 0.5 mi North 3.5 mph - N/A Fog Fog
7:41 AM 53.6 °F 53.6 °F 100% 30.44 in 1.5 mi North 5.8 mph - N/A   Mostly Cloudy
7:46 AM 53.6 °F 53.6 °F 100% 30.44 in 3.0 mi North 5.8 mph - N/A   Mostly Cloudy
7:56 AM 55.0 °F 54.0 °F 96% 30.44 in 4.0 mi North 5.8 mph - N/A   Scattered Clouds
8:04 AM 55.4 °F 53.6 °F 94% 30.44 in 2.0 mi North 4.6 mph - N/A   Scattered Clouds
8:25 AM 55.4 °F 55.4 °F 100% 30.45 in 2.0 mi NNE 8.1 mph - N/A   Mostly Cloudy
8:46 AM 57.2 °F 55.4 °F 94% 30.45 in 7.0 mi NE 6.9 mph - N/A   Scattered Clouds
8:56 AM 57.0 °F 55.9 °F 96% 30.45 in 8.0 mi NE 6.9 mph - N/A   Mostly Cloudy
9:56 AM 62.1 °F 59.0 °F 90% 30.45 in 10.0 mi NE 5.8 mph - N/A   Mostly Cloudy
10:56 AM 64.9 °F 57.9 °F 78% 30.43 in 10.0 mi NE 9.2 mph - N/A   Overcast
11:56 AM 70.0 °F 57.0 °F 63% 30.40 in 10.0 mi ENE 10.4 mph - N/A   Mostly Cloudy
12:56 PM 71.1 °F 53.1 °F 53% 30.39 in 10.0 mi East 11.5 mph 19.6 mph N/A   Overcast
1:56 PM 69.1 °F 52.0 °F 54% 30.39 in 10.0 mi ENE 10.4 mph - N/A   Overcast
2:56 PM 69.1 °F 51.1 °F 53% 30.39 in 10.0 mi East 13.8 mph 21.9 mph N/A   Overcast
3:56 PM 66.9 °F 53.1 °F 61% 30.39 in 10.0 mi ENE 10.4 mph - 0.00 in   Overcast
4:09 PM 66.2 °F 53.6 °F 64% 30.39 in 10.0 mi East 10.4 mph - 0.00 in Rain Light Rain
4:56 PM 60.1 °F 57.9 °F 93% 30.39 in 2.5 mi ENE 10.4 mph - 0.00 in Rain Light Rain
5:09 PM 60.8 °F 57.2 °F 88% 30.39 in 2.0 mi ENE 9.2 mph - 0.00 in Rain Light Rain
5:29 PM 60.8 °F 57.2 °F 88% 30.38 in 3.0 mi ENE 6.9 mph - 0.01 in   Overcast
5:47 PM 60.8 °F 59.0 °F 94% 30.38 in 4.0 mi NE 6.9 mph - 0.01 in Rain Light Rain
5:56 PM 60.1 °F 59.0 °F 96% 30.38 in 4.0 mi ENE 4.6 mph - 0.01 in   Overcast
6:56 PM 60.1 °F 59.0 °F 96% 30.39 in 6.0 mi ENE 5.8 mph - N/A   Overcast
7:56 PM 60.1 °F 59.0 °F 96% 30.40 in 7.0 mi NE 8.1 mph - N/A   Overcast
8:56 PM 57.9 °F 55.9 °F 93% 30.40 in 10.0 mi ENE 11.5 mph - N/A   Overcast
9:56 PM 55.9 °F 54.0 °F 93% 30.38 in 10.0 mi ENE 8.1 mph - N/A   Overcast
10:56 PM 55.9 °F 54.0 °F 93% 30.37 in 10.0 mi NE 5.8 mph - N/A   Overcast
11:56 PM 55.9 °F 54.0 °F 93% 30.36 in 10.0 mi NE 5.8 mph - 0.00 in   Overcast